Location: Desert Center
(33.7130°N, 115.4010°W)
Time: 04:22:31
(UTC-08:00)

Daily predictions for brighter satellites

Satellite Brightness Start Highest point End
(mag) Time Altitude Azimuth Time Altitude Azimuth Time Altitude Azimuth
Cosmos 2369 Rocket 4.5 03:37:58 13° N 03:37:58 13° N 03:38:37 10° N
Lacrosse 5 3.8 03:46:45 20° N 03:46:45 20° N 03:48:32 10° NNE
Meteor 2-10 Rocket 3.6 03:58:51 67° ENE 03:58:51 67° ENE 04:03:36 10° NNE
Okean-O 3.3 03:56:58 10° NNE 04:01:18 51° E 04:01:36 50° ESE
Cosmos 1833 4.2 04:03:27 45° N 04:05:14 79° ENE 04:10:51 10° SSE
ATLAS 5 CENTAUR R/B 4.0 04:09:31 14° N 04:09:31 14° N 04:10:43 10° N
Cosmos 1943 Rocket 3.6 04:15:00 23° NNW 04:15:00 23° NNW 04:17:33 10° N
Okean 2 Rocket 4.4 04:10:58 10° N 04:15:05 39° E 04:19:12 10° SSE
USA 234 3.3 04:08:57 10° NE 04:15:21 61° NW 04:16:39 51° W
Cosmos 1244 Rocket 4.4 04:10:08 10° N 04:16:22 84° E 04:22:31 10° S
Thor Agena Rocket 4.1 04:14:48 10° SSE 04:19:55 57° ENE 04:24:58 10° N
Delta 2 Rocket 3.5 04:21:53 80° WSW 04:22:09 87° SSE 04:27:20 10° ENE
Cosmos 1452 Rocket 3.7 04:22:57 51° NW 04:22:57 51° NW 04:27:36 10° N
CZ-4C R/B 2.2 04:25:11 51° WNW 04:25:17 51° NW 04:30:54 10° NNE
CZ-4B R/B 3.8 04:22:05 10° N 04:26:10 85° WNW 04:26:26 78° SW
CZ-4B R/B 4.4 04:24:03 10° N 04:27:19 27° NW 04:27:19 27° NW
ATLAS 3B R/B 3.2 04:24:32 10° SSW 04:32:04 66° ESE 04:39:23 10° NE
ADEOS II 3.5 04:33:44 10° NNW 04:36:07 21° NW 04:36:07 21° NW
S3M 3.9 04:32:03 10° S 04:38:24 85° W 04:44:44 10° N
Cosmos 407 Rocket 4.0 04:40:24 37° WSW 04:40:24 37° WSW 04:44:33 10° SSW
Cosmos 1606 3.7 04:39:00 10° SSE 04:42:43 49° E 04:46:29 10° NNE
Cosmos 1782 3.0 04:39:45 10° S 04:43:41 72° E 04:47:38 10° N
COSMO-SKYMED 1 3.6 04:39:51 10° SSE 04:44:01 48° ENE 04:48:11 10° N
Cosmos 1553 Rocket 3.9 04:38:51 10° SSW 04:44:59 71° W 04:51:16 10° N
Cosmos 676 Rocket 4.1 04:41:07 11° NNW 04:46:05 50° WSW 04:51:12 10° S
Cosmos 2221 Rocket 4.2 04:53:34 33° W 04:53:52 34° W 04:58:00 10° NNW
Cosmos 1140 Rocket 3.4 04:49:40 10° NNW 04:54:53 72° WSW 05:00:05 10° S
Meteor 1-14 Rocket 4.3 04:50:57 10° NNW 04:56:34 54° W 05:02:01 10° S
USA 81 4.0 04:53:25 10° S 04:58:41 88° W 05:03:59 10° N
Cosmos 614 Rocket 3.9 04:53:57 10° NNW 04:59:05 88° WSW 05:04:13 10° SSE
Okean 1-7 3.7 04:59:41 29° W 05:00:28 31° W 05:04:18 10° NNW
Meteor 2-6 Rocket 4.1 05:00:43 10° S 05:06:06 88° W 05:11:32 10° N
Cosmos 2278 4.3 05:03:53 10° S 05:09:24 60° ESE 05:14:58 10° NNE
Meteor 1-31 Rocket 4.2 05:07:01 10° NNW 05:09:20 20° WNW 05:09:20 20° WNW
SKYMED 3 4.5 05:09:39 10° S 05:13:58 72° WSW 05:18:19 10° NNW
Meteor 1-25 Rocket 4.5 05:13:25 10° NNW 05:19:01 49° W 05:24:36 10° SSW
GEOS 3 Rocket 4.4 05:16:22 10° S 05:20:43 29° WSW 05:25:08 10° WNW
Cosmos 1709 Rocket 4.5 05:14:45 10° N 05:20:50 65° E 05:26:55 10° SSE
Cosmos 2219 3.3 05:15:29 10° NNW 05:21:00 55° WSW 05:26:28 10° S
PAYLOAD A 4.4 05:17:35 10° NNE 05:22:19 63° E 05:27:11 10° S
Cosmos 2227 Rocket 3.4 05:19:33 10° N 05:24:58 44° ENE 05:30:21 10° SE
Cosmos 1850 Rocket 4.1 05:23:32 10° NNW 05:28:44 55° WSW 05:33:51 10° S
Tiangong 1 3.3 05:27:36 10° NW 05:29:14 14° N 05:30:52 10° NNE
Cosmos 1300 Rocket 4.1 05:26:49 10° N 05:31:13 64° E 05:35:33 10° SSE
Cosmos 1633 2.7 05:27:55 10° N 05:31:33 78° E 05:35:07 10° S
SKYMED 2 3.9 05:27:56 10° S 05:32:02 42° W 05:36:10 10° NNW
Cosmos 2315 Rocket 4.1 05:26:11 10° S 05:32:33 85° W 05:38:56 10° N
Cosmos 1656 4.4 05:28:17 10° S 05:33:51 61° ESE 05:39:27 10° NNE
CZ-4 R/B 2.7 05:30:49 10° NNE 05:34:49 47° E 05:38:43 10° S
Okean-O 4.5 05:35:35 10° NW 05:37:17 12° WNW 05:39:00 10° W
Ariane Rocket 3.0 05:32:39 10° N 05:37:41 65° WNW 05:42:41 10° SSW
ISS -0.3 05:36:13 10° SSE 05:38:20 16° SE 05:40:28 10° E
Cosmos 1745 Rocket 4.4 05:33:41 10° NNW 05:39:13 36° W 05:44:44 10° SSW
Meteor 1-11 Rocket 3.9 05:37:39 10° N 05:43:38 89° W 05:49:28 10° S
Cosmos 1674 Rocket 3.8 05:40:17 10° SSW 05:44:30 46° W 05:48:47 10° N
Okean 3 3.7 05:40:23 10° S 05:44:39 80° E 05:48:58 10° N
Cosmos 1378 Rocket 3.6 05:41:08 10° S 05:45:31 85° E 05:49:53 10° N
COSMOS 2455 3.0 05:39:48 10° SSW 05:45:49 82° ESE 05:51:52 10° NNE
IDEFIX/ARIANE 42P 2.7 05:45:29 10° NNE 05:50:44 86° ESE 05:55:55 10° SSW
Cosmos 1697 Rocket 3.4 05:46:46 10° S 05:52:19 61° ESE 05:57:54 10° NNE
